Weather in Radekhiv

Ukraine / Lviv District     50˚16′41″N   24˚38′42″E
temp.,
°C
wind,
m/s
gust,
m/s
humid.,
%
clouds,
%
prec.,
mm/h
press.,
hPa
HPBL,
m
29 november, sun
sun2923:00−1˚nw258997 0.1 1019316
02:00−1˚wnw249199 0.1 1019263
05:00−1˚w249597 0.4 1019255
08:00−1˚sw249699 0.7 1019242
11:00w3590100 0.3 1020390
14:00+1˚wnw2276100 0.6 1020579
17:00−1˚w2286100 0.1 102027
20:00−2˚w229190 0.1 102142
30 november, mon
mon3023:00−2˚wsw239272 0.0 102357
02:00−2˚w249076 0.0 1024168
05:00−3˚w259218 0.0 1024159
08:00−3˚wsw239543 0.0 1025107
11:00w357527 0.0 1026524
14:00+1˚w347135 0.0 1027761
17:00w247597 0.0 1027167
20:00−1˚w237399 0.0 1028172
1 december, tue
tue123:00−1˚wsw1273100 0.0 1029172
02:00−1˚ssw1171100 0.0 102847
05:00−3˚sse228227 0.0 102830
08:00−3˚se348214 0.0 1028134
11:00−1˚se46680 0.0 1028503
14:00+1˚se35650 0.0 1027582
17:00−2˚e36800 0.0 1027138
20:00−3˚ese37830 0.0 1028208
2 december, wed
wed223:00−3˚e37840 0.0 1028202
02:00−4˚e35870 0.0 1027147
05:00−4˚ene36900 0.0 1026202
08:00−4˚e359620 0.0 1026165
11:00−1˚e368692 0.0 1026293
14:00e358681 0.0 1024352
17:00−1˚ese369199 0.0 1024387
20:00ese2390100 0.0 1023133
3 december, thu
thu323:00ese2495100 0.0 1023133
02:00ese2494100 0.0 1022128
05:00se379188 0.0 1022331
08:00se378394 0.0 1022463
11:00+1˚se587699 0.0 1022649
14:00+2˚se697781 0.0 1020624
17:00−1˚ese4108944 0.0 1019271
20:00−1˚se5139129 0.0 1019498